TimeEDT,TemperatureF,Dew PointF,Humidity,Sea Level PressureIn,VisibilityMPH,Wind Direction,Wind SpeedMPH,Gust SpeedMPH,PrecipitationIn,Events,Conditions,WindDirDegrees,DateUTC
12:31 AM,57.9,57.0,97,30.28,3.0,Variable,3.5,-,0.01,Rain,Light Rain,0,2013-05-02 04:31:00
12:54 AM,57.9,57.0,97,30.26,6.0,NE,6.9,-,0.02,,Overcast,50,2013-05-02 04:54:00
1:54 AM,57.9,57.0,97,30.25,5.0,Variable,6.9,-,0.02,,Overcast,0,2013-05-02 05:54:00
2:54 AM,57.0,57.0,100,30.24,4.0,NNE,6.9,-,0.00,Rain,Light Rain,30,2013-05-02 06:54:00
3:40 AM,57.0,57.0,100,30.24,2.5,NE,5.8,-,0.02,Rain,Light Rain,40,2013-05-02 07:40:00
3:54 AM,57.0,57.0,100,30.23,2.5,NE,3.5,-,0.03,Rain,Light Rain,50,2013-05-02 07:54:00
4:08 AM,57.0,57.0,100,30.25,3.0,Variable,3.5,-,0.01,Rain,Rain,0,2013-05-02 08:08:00
4:54 AM,57.9,57.0,97,30.22,5.0,Variable,5.8,-,0.02,,Overcast,0,2013-05-02 08:54:00
5:21 AM,57.9,57.0,97,30.24,4.0,ENE,6.9,-,0.00,,Overcast,60,2013-05-02 09:21:00
5:54 AM,57.9,57.0,97,30.23,4.0,Variable,4.6,-,0.00,,Overcast,0,2013-05-02 09:54:00
6:40 AM,57.9,57.0,97,30.25,7.0,ENE,8.1,-,N/A,,Overcast,70,2013-05-02 10:40:00
6:54 AM,57.9,57.0,97,30.24,6.0,Variable,4.6,-,N/A,,Overcast,0,2013-05-02 10:54:00
7:54 AM,57.9,57.0,97,30.25,5.0,Variable,5.8,-,N/A,,Overcast,0,2013-05-02 11:54:00
8:54 AM,59.0,57.0,93,30.27,4.0,Variable,6.9,-,N/A,,Overcast,0,2013-05-02 12:54:00
9:54 AM,59.0,57.9,96,30.27,6.0,Variable,5.8,-,N/A,,Overcast,0,2013-05-02 13:54:00
10:54 AM,57.9,57.0,97,30.28,5.0,ENE,8.1,-,N/A,,Overcast,60,2013-05-02 14:54:00
11:54 AM,59.0,57.0,93,30.29,7.0,ENE,8.1,-,N/A,,Overcast,60,2013-05-02 15:54:00
12:54 PM,60.1,57.0,90,30.29,6.0,NE,5.8,-,N/A,,Overcast,50,2013-05-02 16:54:00
1:54 PM,60.1,57.9,93,30.28,7.0,ENE,9.2,-,N/A,,Overcast,60,2013-05-02 17:54:00
2:26 PM,61.0,57.9,90,30.29,10.0,Variable,6.9,-,N/A,,Overcast,0,2013-05-02 18:26:00
2:54 PM,61.0,57.0,87,30.28,7.0,Variable,5.8,-,N/A,,Overcast,0,2013-05-02 18:54:00
3:54 PM,61.0,57.9,90,30.26,6.0,ENE,8.1,-,N/A,,Overcast,70,2013-05-02 19:54:00
4:31 PM,63.0,57.9,84,30.26,10.0,ENE,6.9,-,N/A,,Overcast,60,2013-05-02 20:31:00
4:54 PM,63.0,57.0,81,30.23,10.0,ENE,8.1,-,N/A,,Overcast,60,2013-05-02 20:54:00
5:54 PM,63.0,57.0,81,30.22,10.0,Variable,5.8,-,N/A,,Overcast,0,2013-05-02 21:54:00
6:03 PM,63.0,57.0,81,30.23,10.0,NE,8.1,-,N/A,,Overcast,40,2013-05-02 22:03:00
6:54 PM,64.0,57.0,78,30.21,10.0,Variable,5.8,-,N/A,,Overcast,0,2013-05-02 22:54:00
7:54 PM,63.0,57.0,81,30.22,10.0,NE,8.1,-,N/A,,Overcast,40,2013-05-02 23:54:00
8:54 PM,61.0,55.9,83,30.23,10.0,NE,4.6,-,N/A,,Overcast,50,2013-05-03 00:54:00
9:54 PM,60.1,55.9,86,30.24,10.0,Variable,5.8,17.3,N/A,,Overcast,0,2013-05-03 01:54:00
10:20 PM,60.1,55.9,86,30.25,10.0,Variable,6.9,-,N/A,,Overcast,0,2013-05-03 02:20:00
10:54 PM,59.0,55.9,90,30.24,7.0,ENE,5.8,-,N/A,,Overcast,60,2013-05-03 02:54:00
11:54 PM,59.0,55.9,90,30.22,8.0,NNE,6.9,-,N/A,,Overcast,30,2013-05-03 03:54:00